Regional Weather Roundup
Issued by NWS Cleveland, OH

Home | Current Version | Previous Version | Graphics & Text | Print | Product List | Glossary On
Versions: 1 2 3 4 5 6 7 8 9 10 11 12 13 14 15 16 17 18 19 20 21 22 23 24 25 26 27 28 29 30 31 32 33 34 35 36 37 38 39 40 41 42 43 44 45 46 47 48 49 50
000
ASUS41 KCLE 280500
RWRCLE
OHIO REGIONAL WEATHER ROUNDUP
NATIONAL WEATHER SERVICE WILMINGTON, OH
100 AM EDT FRI AUG 28 2015

NOTE: "FAIR" INDICATES FEW OR NO CLOUDS BELOW 12,000 FEET WITH NO
SIGNIFICANT WEATHER AND/OR OBSTRUCTIONS TO VISIBILITY.

OHZ001>008-015>018-024>027-034-035-043-044-280600-
   NORTHWEST OHIO

CITY           SKY/WX    TMP DP  RH WIND       PRES   REMARKS
DEFIANCE       CLEAR     58  54  86 E3        30.18R
FINDLAY        CLEAR     60  55  83 E6        30.17S
TOLEDO EXPRESS CLEAR     54  54 100 CALM      30.18R
TOLEDO EXEC    CLEAR     57  53  86 SE5       30.18F
LIMA           CLEAR     57  55  93 E6        30.17S
$$

OHZ009>014-019>023-028>033-038-089-280600-
   NORTHEAST OHIO

CITY           SKY/WX    TMP DP  RH WIND       PRES   REMARKS
CLE-HOPKINS    CLEAR     57  53  86 CALM      30.20F
CLE-LAKEFRONT  CLEAR     61  54  77 S6        30.18S
CUY CO. ARPT   NOT AVBL
LORAIN-ELYRIA  CLEAR     52  51  97 CALM      30.19F
ASHTABULA      CLEAR     51  50  96 CALM      30.20F FOG
AKRON-CANTON   CLEAR     57  52  83 NE6       30.20S
WOOSTER        NOT AVBL
MANSFIELD      CLEAR     56  54  93 E5        30.20S
YOUNGSTOWN     CLEAR     53  52  96 CALM      30.20F
$$

OHZ042-051>053-060>062-070>072-077>081-280600-
  SOUTHWEST OHIO

CITY           SKY/WX    TMP DP  RH WIND       PRES   REMARKS
CINC-COVINGTON PTCLDY    62  57  83 SE3       30.15S
CINC-LUNKEN    CLEAR     57  57 100 CALM      30.15S FOG
HAMILTON       CLEAR     55  54  96 CALM      30.16S
DAYTON         NOT AVBL
WRIGHT-PAT AFB CLEAR     59  57  94 NW2       30.15S
DAYTON GENERAL CLEAR     58  55  90 CALM      30.15S
WILMINGTON     CLEAR     55  52  89 CALM      30.16S
$$

OHZ036-037-039>041-045>050-054>059-063>069-073>076-082>088-280600-
  CENTRAL AND SOUTHEAST OHIO

CITY           SKY/WX    TMP DP  RH WIND       PRES   REMARKS
COLUMBUS       CLEAR     59  54  83 E5        30.16S
OSU AIRPORT    CLEAR     59  56  89 NE6       30.16S
BOLTON FIELD   NOT AVBL
RICKENBACK AFB NOT AVBL
NEWARK         CLEAR     54  53  97 CALM      30.17F
MARION         CLEAR     57  54  89 CALM      30.18S
LANCASTER      FOG       52  50  93 CALM      30.17S VSB 3/4
ZANESVILLE     CLEAR     58  55  90 CALM      30.17F
NEW PHILLY     CLEAR     55  54  96 CALM      30.19S
$$


USA.gov is the U.S. government's official web portal to all federal, state and local government web resources and services.